User: anonymous   Login
Location: Unspecified
(0.0000°N, 0.0000°E)
Time: 20:55:46
(UTC+00:00)
Language:

SICRAL 2 - Orbit

View from above orbital plane
View from above orbital plane
View from above satellite
View from above satellite

Ground track
Ground track

The orbit data is extracted from the following two-line orbital elements,

1 40614U 15022B   18044.42382375 0.00000000  00000-0  00000-0 0    09
2 40614   0.0230 333.0046 0003996 338.6073  21.3776  1.00270000    04
Epoch (UTC): 13 February 2018 10:10:18
Eccentricity: 0.0003996
inclination: 0.0230°
perigee height: 35770 km
apogee height: 35803 km
right ascension of ascending node: 333.0046°
argument of perigee: 338.6073°
revolutions per day: 1.00270000
mean anomaly at epoch: 21.3776°
orbit number at epoch: 0

The dashed part of the orbit path shows where the satellite is in the earth's shadow,  

DLR